Find ION Charismatic Carlus

NORAD ID: 64575 Int'l Des: 2025-135 Owner: DORBIT Country: I operational
別名: ION SCV-018 spacetrack, celestrak ION SCV Charismatic Carlus satnogs
LEOCIRCULARRETROGRADESSO

現在のビュー

3D地球を読み込み中...

About ION Charismatic Carlus

ION Charismatic Carlus (NORAD 64575) is a satellite launched Jun 23, 2025 by DORBIT of I. It operates in LEO, CIRCULAR, RETROGRADE, SSO orbit with a mass of 150.00 kg.

次回通過

Passes for default location (London). Set your location on the main map for personalized predictions.

高度履歴

Loading altitude history...

軌道要素

1 64575U 25135AZ 26237.30778729 .00000469 00000-0 48441-4 0 9990
2 64575 97.7834 351.7969 0013872 65.4800 294.7865 14.94755073 64254
Epoch: Aug 25, 2026 • Age: 21 hours

現在のステータス

高度 599.1 km
遠地点 / 近地点 N/A
速度 7.56 km/s
衛星直下点 -37.42°S, 37.37°W
打ち上げ日 Jun 23, 2025
運用期間 1.1 years
タイプ other

技術仕様

分類 Payload
質量 150.00 kg
乾燥質量 150.00 kg
総質量 220.00 kg
長さ 0.40 m
直径 0.40 m
スパン 0.40 m
形状 Box
製造者 DORBIT
バスタイプ ION-SC
フェーズステータス In Orbit
所有者/国 DORBIT/I

Most Searched